ATLAS 5 CENTAUR DEB, 45472

Orbit data source: Space-Track

ATLAS 5 CENTAUR DEB, 45472 is space debris in HEO originally from a launch on Wed, 17 Oct 2018 UTC launched from the Air Force Eastern Test Range (AFETR). Debris objects in space refer to the collection of defunct objects orbiting the Earth. Examples of debris include non-operational satellites, rocket bodies, and fragments generated from explosions, collisions, or faulty payload assembly.

Loading next visibility...
Identifier
45472, 2018-079BU
Orbit
HEO
Country
Flag of USUS
Related business
Flag of USUnited Launch Alliance/Lockheed Martin (US)
Manufacturer
ULA Decatur
Mission
Spacecraft
Bus & Motor
Unknown
Mass
Unknown
Launch date (UTC)
2018-10-17 (7 years ago)
Launch vehicle
Unknown
Launch site
Air Force Eastern Test Range (AFETR)
Object type
Payload
Rocket body
Debris
Shape & HBR
Unknown shape, 1.1 m
Radar Cross Section
RCS unknown

Expand to show TLE details & history
Last TLE update: 2 weeks ago

TLE from 2 weeks ago
0 ATLAS 5 CENTAUR DEB
1 45472U 18079BU  25279.57973434 -.00000086  00000-0  00000-0 0  9999
2 45472  13.1508  51.7890 4771695 282.7968  29.7622  1.81826523 28018
Epoch: 2025-10-06T13:54Z
TLE epoch observation values (Epoch: 2025-10-06T13:54:49.046Z)
Latitude
-0.00008°
Longitude
-172.39178°
Altitude
13,396.609 km
Speed
5.124 km/s
True Right ascension
03h 27m 10s
True Declination
0° 00' 00"
Sunlit
Object was in daylight at epoch
Visualization orbit readout
Latitude
Unknown
Longitude
Unknown
Altitude
Unknown
Speed
Unknown
Apparent Right ascension
Unknown
Apparent Declination
Unknown
Sunlit
N/A
Visualization observer readout
Local Sidereal Time
11:38:23
Azimuth
Unknown
Elevation
Unknown
Doppler factor
Unknown
Orbital elements
Apogee altitude
35,510.216 km
Perigee altitude
8,447.858 km
Semi-major axis
28,357.174 km
Eccentricity
0.47717
Inclination
13.1508°
RAAN
51.789°
Arg. of periapsis
282.7968°
True anomaly
77.45728°
Mean anomaly
29.7622°
Eccentric anomaly
51.01317°
Mean motion
0.45452 °/min
Orbital period
792.05 mins
BSTAR
0
Loading maneuver chart data...
Computing Atmospheric mass density...

Documentation

Showing up to 5 results
|